User: anonymous   Login
Location: Unspecified
(0.0000°N, 0.0000°E)
Time: 09:50:06
(UTC+00:00)
Language:

METEOR M2 - Orbit

View from above orbital plane
View from above orbital plane
View from above satellite
View from above satellite

Ground track
Ground track

The orbit data is extracted from the following two-line orbital elements,

1 40069U 14037A   20219.82973528 -.00000020  00000-0  10037-4 0  9990
2 40069  98.4994 255.4525 0006534 128.5410 231.6346 14.20674240315364
Epoch (UTC): 06 August 2020 19:54:49
Eccentricity: 0.0006534
inclination: 98.4994°
perigee height: 818 km
apogee height: 828 km
right ascension of ascending node: 255.4525°
argument of perigee: 128.5410°
revolutions per day: 14.20674240
mean anomaly at epoch: 231.6346°
orbit number at epoch: 31536

The dashed part of the orbit path shows where the satellite is in the earth's shadow,  

DLR